sat.trackr.live / text

‹ back to catalog

COSMOS 2552 (EKS 5)

NORAD 49503 · 2021-113A

PAYLOAD ACTIVE UNKNOWN

§ Identity

Operator
Country
CIS
Launch date
2021-11-25
Launch site
PLMSC
Launch vehicle
Mass (kg)
RCS (m²)

External: N2YO · Heavens-Above · Gunter

§ Orbital elements

Epoch: 2026-09-13T04:04:28.094304Z

Period
717.89 min
Inclination
62.8263°
Eccentricity
0.6405223
Mean motion
2.00587516 rev/d
Perigee alt
3,169.0 km
Apogee alt
37,191.2 km
Semi-major
26,558.2 km
B*
0.0000e+0
RAAN
199.4814°
Arg perigee
272.3962°
Mean anomaly
20.9327°
Rev number
3,516

§ Raw data

COSMOS 2552 (EKS 5)1 49503U 21113A   26256.16976961 -.00000126  00000+0  00000+0 0  99932 49503  62.8263 199.4814 6405223 272.3962  20.9327  2.00587516 35161

JSON: /api/v1/satellites/49503 · /tle

For live sub-satellite position, see the globe view (requires WebGL).

§ Visibility from observer

Set your observer location to see the next 7 days of passes ≥ 10°. The values pass through the URL so the page stays shareable.

No JS? Fill the form by hand. The geolocation button needs JavaScript.